Weather in Hopok

Slovakia     48°55′27″N   19°36′09″E
temp.,
°C
wind,
m/s
gust,
m/s
humid.,
%
clouds,
%
prec.,
mm/h
press.,
hPa
HPBL,
m
9 may, sun
sun923:000s11775 0.0 102412
02:000s11764 0.0 102414
05:000sse237685 0.0 102441
08:00+7s345211 0.0 1022526
11:00+11ssw454527 0.0 10211006
14:00+13ssw344810 0.0 10201025
17:00+13s345647 0.0 1019897
20:00+7s348765 0.0 102177
10 may, mon
mon1023:00+4sse34945 0.0 102258
02:00+4sse34945 0.0 102262
05:00+3sse348945 0.0 102163
08:00+11sse35585 0.0 1018422
11:00+16sse46430 0.0 1017876
14:00+18sse464216 0.0 10161223
17:00+17sse35505 0.0 10161001
20:00+10sse339055 0.0 101856
11 may, tue
tue1123:00+8se239711 0.0 101852
02:00+8se33975 0.0 101757
05:00+7se33973 0.0 101663
08:00+13sse34720 0.0 1014341
11:00+18sse35490 0.0 10131013
14:00+20sse35430 0.0 10121435
17:00+19sse35510 0.0 10111392
20:00+12sse22884 0.0 101132
12 may, wed
wed1223:00+10se22960 0.0 101133
02:00+9se22970 0.0 101025
05:00+9se21960 0.0 100818
08:00+15se12740 0.0 1006388
11:00+18sse226157 0.9 10041268
14:00+18sse245871 2.6 10031445
17:00+16sse3460100 0.5 10011215
20:00+11sse0096100 9.9 100223
13 may, thu
thu1323:00+10sse2399100 1.8 1002173
02:00+8s249968 2.6 1003150
05:00+7s2396100 0.0 1003293
08:00+8s2395100 0.1 1002306
11:00+8ssw2391100 0.4 1003379
14:00+11sw237573 1.1 1002985
17:00+11sw236978 0.5 10031113
20:00+7ssw228876 0.7 100430